Regional Weather Roundup
Issued by NWS

Home | Current Version | Previous Version | Text Only | Print | Product List | Glossary On
Versions: 1 2 3 4 5 6 7 8 9 10 11 12 13 14 15 16 17 18 19 20 21 22 23 24 25 26 27 28 29 30 31 32 33 34 35 36 37 38 39 40 41 42 43 44 45 46 47 48 49 50
000
ASUS43 KMKX 260621
RWRWI

WISCONSIN REGIONAL WEATHER ROUNDUP
NATIONAL WEATHER SERVICE MILWAUKEE/SULLIVAN WI
100 AM CDT TUE SEP 26 2017

NOTE: "FAIR" INDICATES FEW OR NO CLOUDS BELOW 12,000 FEET WITH NO
SIGNIFICANT WEATHER AND/OR OBSTRUCTIONS TO VISIBILITY.

WIZ001-002-006>008-014>016-023>028-260700-
NORTHWEST WISCONSIN

CITY           SKY/WX    TMP DP  RH WIND       PRES   REMARKS
SUPERIOR ARPT  LGT RAIN  58  58 100 NE8       29.97F
6HR MIN TEMP:  57; 6HR MAX TEMP:  59; 6HR PCP:  0.04;

ASHLAND        CLOUDY    57  56  96 NE13      29.98F
6HR MIN TEMP:  57; 6HR MAX TEMP:  59; 6HR PCP:  0.22;

HAYWARD        LGT RAIN  58  56  93 N5        29.95F
6HR MIN TEMP:  57; 6HR MAX TEMP:  58; 6HR PCP:  0.05;

SIREN          RAIN      56  56  97 NE5       29.95F
6HR MIN TEMP:  56; 6HR MAX TEMP:  58; 6HR PCP:  0.04;

CUMBERLAND     DRIZZLE   55  54  94 NE3       29.95F
RICE LAKE      LGT RAIN  58  57  97 CALM      29.96F
6HR MIN TEMP:  58; 6HR MAX TEMP:  60; 6HR PCP:  0.17;

CHETEK         DRIZZLE   60  60 100 CALM      29.95S
6HR MIN TEMP:  59; 6HR MAX TEMP:  61; 6HR PCP:  0.34;

LADYSMITH      DRIZZLE   61  60  96 E3        29.96F
6HR MIN TEMP:  60; 6HR MAX TEMP:  64;

EAU CLAIRE     CLOUDY    63  62  97 NE3       29.93S
6HR MIN TEMP:  63; 6HR MAX TEMP:  66; 6HR PCP:  0.01;

MENOMONIE      LGT RAIN  61  61 100 CALM      29.94F
6HR MIN TEMP:  60; 6HR MAX TEMP:  65; 6HR PCP:  0.27;

NEW RICHMOND   LGT RAIN  57  57  98 CALM      29.95R
6HR MIN TEMP:  57; 6HR MAX TEMP:  59; 6HR PCP:  0.01;

OSCEOLA        CLOUDY    57  57 100 CALM      29.97S
6HR MIN TEMP:  57; 6HR MAX TEMP:  59; 6HR PCP:  0.03;

$$

WIZ003>005-009-010-017-018-260700-
NORTH CENTRAL WISCONSIN

CITY           SKY/WX    TMP DP  RH WIND       PRES   REMARKS
MANITOWISH WTR NOT AVBL
ARBOR VITAE    CLOUDY    62  61  96 CALM      29.96S
6HR MIN TEMP:  62; 6HR MAX TEMP:  65; 6HR PCP:  0.71;

WOODRUFF       CLOUDY    62  61  96 CALM      29.96S
6HR MIN TEMP:  62; 6HR MAX TEMP:  65; 6HR PCP:  0.71;

RHINELANDER    CLOUDY    63  63 100 CALM      29.97S
6HR MIN TEMP:  62; 6HR MAX TEMP:  72; 6HR PCP:  0.01;

EAGLE RIVER    CLOUDY    61  61 100 CALM      29.95F
6HR MIN TEMP:  61; 6HR MAX TEMP:  69;

LAND O LAKES   CLOUDY    61  60  99 NE3       29.98F
6HR MIN TEMP:  61; 6HR MAX TEMP:  64; 6HR PCP:  0.28;

PHILLIPS       FOG       59  59 100 CALM      29.94F VSB 1/2
6HR MIN TEMP:  58; 6HR MAX TEMP:  64;

TOMAHAWK       FOG       61  60  97 CALM      29.96S VSB 3/4
6HR MIN TEMP:  59; 6HR MAX TEMP:  69;

MEDFORD        CLOUDY    62  62  99 E3        29.95F FOG
6HR MIN TEMP:  62; 6HR MAX TEMP:  69;

MERRILL        MOCLDY    63  63 100 CALM      29.96S FOG
6HR MIN TEMP:  63; 6HR MAX TEMP:  76;

$$

WIZ029-030-035-036-043>047-260700-
CENTRAL WISCONSIN

CITY           SKY/WX    TMP DP  RH WIND       PRES   REMARKS
WAUSAU         CLOUDY    66  64  93 S5        29.94S
6HR MIN TEMP:  65; 6HR MAX TEMP:  76; 6HR PCP:  0.07;

MOSINEE        RAIN      64  64 100 S6        29.98R
MARSHFIELD     LGT RAIN  64  62  93 E5        29.94F
6HR MIN TEMP:  61; 6HR MAX TEMP:  70; 6HR PCP: TRACE;

STEVENS POINT  CLOUDY    66  65  97 SW5       29.98R
6HR MIN TEMP:  63; 6HR MAX TEMP:  73;

WAUPACA        PTCLDY    66  64  93 CALM      29.96R
6HR MIN TEMP:  66; 6HR MAX TEMP:  79;

WAUTOMA        CLOUDY    67  64  90 E3        29.96F
6HR MIN TEMP:  65; 6HR MAX TEMP:  75;

WISC RAPIDS    LGT RAIN  67  65  93 NE5       29.94F
6HR MIN TEMP:  65; 6HR MAX TEMP:  72; 6HR PCP:  0.21;

CAMP DOUGLAS   CLOUDY    66  66 100 S6        29.95R FOG
6HR MIN TEMP:  65; 6HR MAX TEMP:  70; 6HR PCP:  0.15;

$$

WIZ011>013-019>022-031-037>040-048>050-260700-
NORTHEAST WISCONSIN

CITY           SKY/WX    TMP DP  RH WIND       PRES   REMARKS
ANTIGO         CLOUDY    63  63 100 CALM      29.97R FOG
6HR MIN TEMP:  63; 6HR MAX TEMP:  70; 6HR PCP:  0.51;

SHAWANO        PTCLDY    66  62  88 CALM      29.94R
6HR MIN TEMP:  66; 6HR MAX TEMP:  79;

OCONTO         CLEAR     62  60  94 CALM      29.92F
6HR MIN TEMP:  61; 6HR MAX TEMP:  76;

STURGEON BAY   NOT AVBL
GREEN BAY      CLEAR     63  63 100 CALM      29.93F
6HR MIN TEMP:  63; 6HR MAX TEMP:  76;

MANITOWOC      PTCLDY    65  60  84 CALM      29.94S
6HR MIN TEMP:  64; 6HR MAX TEMP:  72;

APPLETON       PTCLDY    66  59  77 NW6       29.94R
CLINTONVILLE   CLEAR     64  63  94 CALM      29.94S
OSHKOSH        PTCLDY    69  62  78 W7        29.95R
6HR MIN TEMP:  65; 6HR MAX TEMP:  78;

$$

WIZ032>034-041-042-053>061-260700-
SOUTHWEST WISCONSIN

CITY           SKY/WX    TMP DP  RH WIND       PRES   REMARKS
LA CROSSE      CLOUDY    69  67  93 CALM      29.91F
6HR MIN TEMP:  68; 6HR MAX TEMP:  72; 6HR PCP:  0.03;

SPARTA         DRIZZLE   61  61 100 CALM      29.94S
6HR MIN TEMP:  61; 6HR MAX TEMP:  66; 6HR PCP:  0.21;

VIROQUA        CLOUDY    65  65 100 CALM      29.95R
6HR MIN TEMP:  65; 6HR MAX TEMP:  67; 6HR PCP:  0.29;

BOSCOBEL       LGT RAIN  68  66  93 CALM      29.94S FOG
6HR MIN TEMP:  66; 6HR MAX TEMP:  70; 6HR PCP:  0.52;

PRAIRIE DU CHI CLOUDY    66  65  94 SE3       29.92F FOG
6HR MIN TEMP:  66; 6HR MAX TEMP:  69; 6HR PCP:  0.16;

PLATTEVILLE    PTCLDY    67  67  98 NE3       29.96S
6HR MIN TEMP:  67; 6HR MAX TEMP:  74;

$$

WIZ056-057-062-063-064-067-068-260700-
SOUTH CENTRAL WISCONSIN

CITY           SKY/WX    TMP DP  RH WIND       PRES   REMARKS
REEDSBURG      RAIN      65  65 100 CALM      29.96S
6HR MIN TEMP:  64; 6HR MAX TEMP:  70; 6HR PCP:  0.03;

BARABOO/DELLS  PTCLDY    65  62  89 CALM      29.97R
6HR MIN TEMP:  65; 6HR MAX TEMP:  71;

LONE ROCK      CLOUDY    67  67 100 E3        29.93F
6HR MIN TEMP:  65; 6HR MAX TEMP:  73; 6HR PCP:  0.19;

MINERAL POINT  CLEAR     66  66 100 NE3       29.95F
MADISON        CLEAR     66  63  90 CALM      29.95S
6HR MIN TEMP:  65; 6HR MAX TEMP:  78;

MIDDLETON      CLEAR     67  64  87 CALM      29.97R
6HR MIN TEMP:  65; 6HR MAX TEMP:  76;

WATERTOWN      CLEAR     68  63  83 NW7G17    29.95R
6HR MIN TEMP:  64; 6HR MAX TEMP:  79;

MONROE         CLEAR     66  61  82 NW8       29.95S
JANESVILLE     CLEAR     68  59  73 CALM      29.93S
$$

WIZ051-052-058>065-066-070>072-260700-
SOUTHEAST WISCONSIN

CITY           SKY/WX    TMP DP  RH WIND       PRES   REMARKS
MILWAUKEE      CLEAR     74  60  61 S5        29.93S
6HR MIN TEMP:  74; 6HR MAX TEMP:  80;

WAUKESHA       CLEAR     68  55  64 CALM      29.95S
MILWAUKEE/TIMM CLOUDY    68  55  64 S3        29.94S
RACINE         CLEAR     70  65  84 CALM      29.95S
6HR MIN TEMP:  70; 6HR MAX TEMP:  78;

BURLINGTON     CLEAR     60  60  98 CALM      29.94S
6HR MIN TEMP:  60; 6HR MAX TEMP:  78;

KENOSHA        CLEAR     67  59  75 CALM      29.94S
6HR MIN TEMP:  67; 6HR MAX TEMP:  78;

FOND DU LAC    CLEAR     64  59  83 CALM      29.94S
6HR MIN TEMP:  64; 6HR MAX TEMP:  78;

SHEBOYGAN      PTCLDY    62  62 100 CALM      29.93F
6HR MIN TEMP:  61; 6HR MAX TEMP:  73;

WEST BEND        N/A     63  59  88 CALM      29.95R
JUNEAU         PTCLDY    68  61  78 W5        29.97R
6HR MIN TEMP:  64; 6HR MAX TEMP:  78;

$$

LSZ147-162-260700-
LAKE SUPERIOR

STATION/POSITION TIME  TEMP    WIND        PRES    WAVE
                       AIR SEA DIR/SP/G            HT/PER
                 (UTC) (F)     (DEG/KT/KT) (MB)    (FT/S)
W MID LAKE BUOY  0550   56 56   30/ 17/ 19 1015.6F   4/ 5
DEVILS ISLAND    0600   56      60/ 21/ 23 1016.2R
PORT WING        0540   60      70/ 10/ 15 1015.2F
SAXON HARBOR     0540   61      50/ 14/ 17 1014.6F
$$

LMZ867-665-643>646-260700-
LAKE MICHIGAN

STATION/POSITION TIME  TEMP    WIND        PRES    WAVE
                       AIR SEA DIR/SP/G            HT/PER
                 (UTC) (F)     (DEG/KT/KT)


USA.gov is the U.S. government's official web portal to all federal, state and local government web resources and services.